This demonstration page uses our WeatherBlox Daily Observations layout. Learn more.

Left ArrowRight Arrow

Hourly Observations for February 13, 2017

Temp ( °F °C ) Dew Point ( °F °C ) Humidity (%) Winds ( mph kmh ) Pressure ( in mb ) Visibility ( mi km ) Precip ( " mm )
12:53 am 00:53 Cloudy 51 10.6 22 -5.6 32 32 NE 17 28 30.23 1024 10 16 0.00 0.00
1:53 am 01:53 Cloudy 49 9.4 21 -6.1 33 33 NNE 16 26 30.21 1023 10 16 0.00 0.00
2:53 am 02:53 Cloudy 48 8.9 21 -6.1 34 34 NE 15 24 30.22 1023 10 16 0.00 0.00
3:53 am 03:53 Cloudy 46 7.8 24 -4.4 42 42 NE 13 20 30.21 1023 10 16 0.00 0.00
4:53 am 04:53 Cloudy 46 7.8 25 -3.9 44 44 NE 13 20 30.17 1022 10 16 0.00 0.00
5:53 am 05:53 Cloudy 46 7.8 25 -3.9 44 44 ENE 12 19 30.17 1022 10 16 0.00 0.00
6:53 am 06:53 Cloudy 45 7.2 26 -3.3 48 48 NE 9 15 30.16 1022 10 16 0.00 0.00
7:53 am 07:53 Cloudy 43 6.1 32 0 65 65 N 12 19 30.17 1022 10 16 0.00 0.00
8:50 am 08:50 Cloudy with Nearby Thunderstorms 43 6 32 0 66 66 NNE 10 17 30.27 1025 10 16 0.00 0.00
8:53 am 08:53 Cloudy with Nearby Thunderstorms 43 6.1 32 0 65 65 NNE 14 22 30.18 1022 10 16 0.00 0.00
9:15 am 09:15 Cloudy 42 5.6 32 0 68 68 NNE 15 24 30.24 1024 10 16 0.00 0.00
9:50 am 09:50 Cloudy 43 6 34 1 71 71 NE 13 20 30.27 1025 10 16 0.00 0.00
9:53 am 09:53 Cloudy 42 5.6 33 0.6 71 71 NE 16 26 30.19 1022 10 16 0.00 0.00
10:40 am 10:40 Cloudy 43 6 36 2 76 76 NE 12 19 30.24 1024 10 16 0.00 0.00
10:53 am 10:53 Cloudy 42 5.6 35 1.7 76 76 NNE 12 19 30.16 1021 10 16 0.00 0.00
11:53 am 11:53 Cloudy 42 5.6 36 2.2 79 79 NE 10 17 30.14 1021 10 16 0.00 0.00
1:53 pm 13:53 Cloudy 43 6.1 36 2.2 76 76 NNE 10 17 30.07 1018 10 16 0.00 0.00
2:53 pm 14:53 Cloudy 43 6 36 2 76 76 NNE 8 13 30.12 1020 10 16 0.00 0.00
3:53 pm 15:53 Cloudy 43 6.1 36 2.2 76 76 N 8 13 30.05 1018 10 16 0.00 0.00
4:11 pm 16:11 Cloudy 42 5.6 37 2.8 82 82 NNE 8 13 30.15 1021 10 16 0.00 0.00
4:53 pm 16:53 Cloudy 42 5.6 36 2.2 79 79 NNE 9 15 30.04 1017 10 16 0.00 0.00
5:49 pm 17:49 Cloudy with Nearby Thunderstorms 41 5 37 3 87 87 NW 7 11 30.15 1021 7 11 0.00 0.03
5:53 pm 17:53 Cloudy with Thunderstorms 41 5 39 3.9 93 93 N 10 17 30.06 1018 7 11 0.00 0.03
6:08 pm 18:08 Cloudy with Thunderstorms 41 5 39 4 93 93 NE 12 19 30.09 1019 4 6 0.00 0.00
6:18 pm 18:18 Cloudy with Nearby Thunderstorms 41 5 39 4 93 93 NW 7 11 30.12 1020 10 16 0.00 0.00
6:30 pm 18:30 Cloudy 41 5 39 4 93 93 NNW 8 13 30.12 1020 10 16 0.00 0.00
6:53 pm 18:53 Cloudy 41 5 39 3.9 93 93 N 6 9 30.04 1017 10 16 0.01 0.25
7:12 pm 19:12 Cloudy 41 5 39 4 93 93 NNE 3 6 30.12 1020 10 16 0.00 0.00
7:38 pm 19:38 Cloudy 41 5 39 4 93 93 Calm 30.12 1020 10 16 0.00 0.00
7:53 pm 19:53 Cloudy 41 5 39 3.9 93 93 VRB 3 6 30.05 1018 10 16 0.00 0.00
8:38 pm 20:38 Cloudy 41 5 39 4 93 93 NNW 10 17 30.09 1019 10 16 0.00 0.00
8:53 pm 20:53 Mostly Cloudy 40 4.4 39 3.9 97 97 NNW 9 15 30.01 1016 10 16 0.00 0.00
9:27 pm 21:27 Cloudy 41 5 39 3.9 93 93 W 5 7 30.15 1021 10 16 0.00 0.00
9:53 pm 21:53 Cloudy 41 5 38 3.3 89 89 N 6 9 30.03 1017 10 16 0.00 0.00
10:53 pm 22:53 Cloudy 41 5 38 3.3 89 89 N 9 15 30.04 1017 10 16 0.00 0.00
11:11 pm 23:11 Cloudy 41 5 39 3.9 93 93 N 6 9 30.12 1020 10 16 0.00 0.00
11:38 pm 23:38 Cloudy 43 6 37 3 81 81 N 6 9 30.09 1019 10 16 0.00 0.00
11:53 pm 23:53 Cloudy 42 5.6 39 3.9 89 89 NNW 3 6 30.04 1017 10 16 0.00 0.00

Powered by AerisWeather